Location: Corcelles
(46.1547°N, 4.7234°E)
Time: 10:51:24
(UTC+00:00)

Resurs 1-4 Rocket - Pass Details

Date: 14 July 2020
Orbit: 800 x 814 km, 98.6° (Epoch: 05 August)

Event Time Altitude Azimuth Distance (km) Brightness Sun altitude
Rises 01:22:02 0° 14° (NNE) 3,348 6.9 -18.9°
Reaches altitude 10° 01:24:23 10° 15° (NNE) 2,410 5.8 -18.7°
Maximum altitude 01:29:44 84° 104° (ESE) 821 2.1 -18.3°
Enters shadow 01:32:21 31° 191° (S) 1,380 2.8 -18.1°
